OBJECT AD, 62404

Orbit data source: Space-Track

You're viewing an Uncataloged Satellite

Recently launched and/or uncataloged satellites may have evolving metadata. Metadata may include but not limited to: Owner, Maufacturer, Bus, Motor, and Mission.

OBJECT AD, 62404 is a satellite in LEO that was launched on Sat, 21 Dec 2024 UTC via an FALCON 9 launch vehicle from the Air Force Western Test Range (AFWTR). Unknown objects in Earth's orbit typically refer to objects detected orbiting the Earth but have not yet been identified or cataloged. These objects could be anything from previously untracked satellites, spent rocket stages, debris from satellite collisions, or even natural meteoroids temporarily captured by Earth's gravity.

Loading next visibility...
OBJECT AD details
Identifier
62404, 2024-247AD
Orbit
LEO
Last TLE update1 day ago
Origin
Flag of TBDTHINK (TBD)
ManufacturerTHINK
MissionOperational Commercial Technology
Bus & MotorCUBESAT 12U?, Unknown motor
Mass~20 kg wet, ~20 kg dry
Launch date (UTC)
2024-12-21 (2 months ago)
Launch vehicle
FALCON 9
Launch site
Air Force Western Test Range (AFWTR)
Object typeUnknown
Shape & HBRBox + 2 Pan, 2 m
Radar Cross Section0.183 m², Small (<0.1 m²)

Expand to show TLE details & history

TLE from 1 day ago
0 OBJECT AD
1 62404U 24247AD  25035.27605312  .00024319  00000-0  10733-2 0  9991
2 62404  44.9945 119.0755 0003579 258.3802 101.6677 15.21397910  6960
Epoch: 2025-02-04T06:37Z
Definitive object data (Epoch: 2025-02-04T06:37:30.989Z)
Latitude-0.00002°
Longitude-114.98731°
Altitude502.12 km
Speed7.615 km/s
True Right ascension07h 56m 18s
True Declination0° 00' 00"
Sunlit
Object was in full shadow at TLE epoch
Visualization TLE readout
Latitude39.49859°
Longitude4.49292°
Altitude506.144 km
Speed7.615 km/s
Apparent Right ascension18h 14m 19s
Apparent Declination2° 00' 10"
Sunlit
Object is in daylight
Visualization observer readout
Local Sidereal Time08:48:30
Azimuth49.69° ENE
Elevation-35.245°
Doppler factor1
Orbital elements
Apogee altitude505.692 km
Perigee altitude500.766 km
Semi-major axis6,881.366 km
Eccentricity0.0003579
Inclination44.9945°
RAAN119.0755°
Arg. of periapsis258.3802°
True anomaly101.70786°
Mean anomaly101.6677°
Eccentric anomaly101.68778°
Mean motion3.80217 °/min
BSTAR0.0010733
Orbital period94.68 mins
Loading maneuver chart data...
Loading historical data...
Loading historical data...
Loading historical data...
Loading historical data...
Loading historical data...
Loading historical data...
Loading historical data...

OBJECT AD Visibility forecast

Observer location: undefined°, undefined

Span
Click to sort rows by Start time (UTC) header in descending order
Start Az.
Max El. time (UTC)
Max El. Az.
Max El.
End time (UTC)
End Az.
6 mins2025-02-05 08:01:16.836Z201.939° SSW2025-02-05 08:04:16.836Z141.179° SSE26.23°2025-02-05 08:07:16.836Z85.032° E
5 mins2025-02-05 09:41:16.836Z265.265° W2025-02-05 09:43:16.836Z348.566° N42.3°2025-02-05 09:46:16.836Z61.737° ENE
6 mins2025-02-05 11:20:16.836Z297.984° NW2025-02-05 11:23:16.836Z18.274° NNE30.385°2025-02-05 11:26:16.836Z67.958° E
5 mins2025-02-05 13:00:16.836Z304.687° NW2025-02-05 13:02:16.836Z7.532° NNE40.713°2025-02-05 13:05:16.836Z95.389° ESE
5 mins2025-02-05 14:39:16.836Z268.757° W2025-02-05 14:41:16.836Z221.909° SW29.169°2025-02-05 14:44:16.836Z153.83° SSE
|